Location: Krasnoyarskiy Pitomnik
(51.1333°N, 71.6167°E)
Time: 10:26:47
(UTC+00:00)

METEOR-M - Pass Details

Date: 22 October 2021
Orbit: 815 x 820 km, 98.5° (Epoch: 06 December)

Event Time Altitude Azimuth Distance (km) Brightness Sun altitude
Rises 23:46:30 0° 14° (NNE) 3,362 7.6 -20.0°
Reaches altitude 10° 23:48:51 10° 13° (NNE) 2,425 6.8 -19.7°
Maximum altitude 23:54:13 82° 288° (WNW) 833 4.0 -18.8°
Drops below altitude 10° 23:59:33 10° 201° (SSW) 2,404 6.3 -18.0°
Sets 00:01:53 0° 200° (SSW) 3,332 7.1 -17.6°
